Torna al catalogo

STARLINK-4335

AttivoComunicazioniSSO
NORAD 53215·PAYLOAD·🇺🇸 United States

Lanciato Jul 22, 2022 da Vandenberg Space Force Base

Loading…

Prossimi Passaggi (prossime 24 ore)

TLE

AggiornatoSource: CelesTrak SupGP

Epoca: Sep 14, 2026, 21:21 UTC

1 53215C 22084AC  26257.89006944 -.00019860  00000+0 -61664-3 0  2572
2 53215  97.2838 313.6478 0001506  92.3903 108.9551 15.33441264    18

Traccia STARLINK-4335 in tempo reale con AllMySat

Download on the App Store